| time (UTC) | temp F | wind direction | speed knots | gust knots | rain 1hr in | rain 24hr in | rain mn in | humidity % | barometer mb |
| 20260906205405 | 88 | 187 | 1.7 | 6.1 | 0.00 | 0.00 | 0.00 | 19 | 1004.6 |
| 20260906202404 | 88 | 269 | 0.9 | 5.2 | 0.00 | 0.00 | 0.00 | 19 | 1004.8 |
| 20260906201905 | 88 | 265 | 2.6 | 5.2 | 0.00 | 0.00 | 0.00 | 20 | 1005.0 |
| 20260906201404 | 87 | 194 | 1.7 | 5.2 | 0.00 | 0.00 | 0.00 | 20 | 1005.0 |
| 20260906200905 | 87 | 263 | 2.6 | 5.2 | 0.00 | 0.00 | 0.00 | 20 | 1005.1 |
| 20260906200404 | 87 | 109 | 0.9 | 2.6 | 0.00 | 0.00 | 0.00 | 21 | 1005.0 |
| 20260906195405 | 88 | 283 | 0.9 | 4.3 | 0.00 | 0.00 | 0.00 | 20 | 1005.1 |
| 20260906194905 | 87 | 4 | 1.7 | 4.3 | 0.00 | 0.00 | 0.00 | 20 | 1005.2 |
| 20260906193404 | 86 | 51 | 0.9 | 5.2 | 0.00 | 0.00 | 0.00 | 23 | 1005.4 |
| 20260906192904 | 86 | 207 | 1.7 | 5.2 | 0.00 | 0.00 | 0.00 | 22 | 1005.4 |
| 20260906192404 | 85 | 325 | 1.7 | 4.3 | 0.00 | 0.00 | 0.00 | 23 | 1005.5 |
| 20260906191904 | 85 | 236 | 1.7 | 5.2 | 0.00 | 0.00 | 0.00 | 22 | 1005.7 |
| 20260906191404 | 85 | 226 | 1.7 | 7.0 | 0.00 | 0.00 | 0.00 | 23 | 1005.8 |
| 20260906190404 | 86 | 217 | 1.7 | 6.1 | 0.00 | 0.00 | 0.00 | 23 | 1005.9 |
| 20260906185404 | 87 | 215 | 2.6 | 7.8 | 0.00 | 0.00 | 0.00 | 20 | 1006.0 |
| 20260906184904 | 88 | 226 | 1.7 | 7.0 | 0.00 | 0.00 | 0.00 | 23 | 1005.9 |
| 20260906183904 | 87 | 305 | 1.7 | 5.2 | 0.00 | 0.00 | 0.00 | 22 | 1006.1 |
| 20260906182404 | 86 | 258 | 1.7 | 7.0 | 0.00 | 0.00 | 0.00 | 25 | 1006.4 |
| 20260906175905 | 85 | 232 | 1.7 | 5.2 | 0.00 | 0.00 | 0.00 | 26 | 1007.1 |
| 20260906174904 | 85 | 329 | 1.7 | 5.2 | 0.00 | 0.00 | 0.00 | 27 | 1007.2 |
| 20260906173404 | 84 | 359 | 1.7 | 2.6 | 0.00 | 0.00 | 0.00 | 29 | 1007.3 |
| 20260906164904 | 77 | 234 | 0.9 | 4.3 | 0.00 | 0.00 | 0.00 | 40 | 1007.5 |
| 20260906164404 | 76 | 213 | 1.7 | 4.3 | 0.00 | 0.00 | 0.00 | 41 | 1007.6 |
| 20260906163904 | 75 | 275 | 0.9 | 4.3 | 0.00 | 0.00 | 0.00 | 42 | 1007.6 |
| 20260906162404 | 75 | 287 | 0.9 | 2.6 | 0.00 | 0.00 | 0.00 | 41 | 1007.7 |
| 20260906160904 | 73 | 257 | 0.9 | 1.7 | 0.00 | 0.00 | 0.00 | 44 | 1007.8 |
| 20260906155904 | 72 | 246 | 0.0 | 2.6 | 0.00 | 0.00 | 0.00 | 47 | 1007.8 |
| 20260906154905 | 70 | 188 | 0.0 | 2.6 | 0.00 | 0.00 | 0.00 | 51 | 1007.9 |
| 20260906153904 | 68 | 223 | 0.9 | 1.7 | 0.00 | 0.00 | 0.00 | 56 | 1007.9 |
| 20260906151904 | 65 | 223 | 0.0 | 1.7 | 0.00 | 0.00 | 0.00 | 60 | 1007.9 |
| 20260906145904 | 64 | 346 | 0.9 | 2.6 | 0.00 | 0.00 | 0.00 | 59 | 1007.9 |
| 20260906144404 | 64 | 142 | 0.0 | 0.0 | 0.00 | 0.00 | 0.00 | 62 | 1007.6 |
| 20260906143904 | 64 | 142 | 0.0 | 0.0 | 0.00 | 0.00 | 0.00 | 62 | 1007.6 |
| 20260906142404 | 63 | 142 | 0.0 | 0.0 | 0.00 | 0.00 | 0.00 | 66 | 1007.6 |
| 20260906141905 | 62 | 142 | 0.0 | 0.0 | 0.00 | 0.00 | 0.00 | 68 | 1007.7 |
| 20260906141404 | 61 | 142 | 0.0 | 0.0 | 0.00 | 0.00 | 0.00 | 69 | 1007.7 |
| 20260906133904 | 58 | 0 | 0.0 | 2.6 | 0.00 | 0.00 | 0.00 | 71 | 1007.6 |
| 20260906130904 | 57 | 0 | 0.0 | 0.0 | 0.00 | 0.00 | 0.00 | 73 | 1007.3 |
| 20260906130404 | 57 | 0 | 0.0 | 0.0 | 0.00 | 0.00 | 0.00 | 72 | 1007.2 |
| 20260906125904 | 57 | 0 | 0.0 | 0.0 | 0.00 | 0.00 | 0.00 | 71 | 1007.4 |
| 20260906125404 | 57 | 0 | 0.0 | 0.0 | 0.00 | 0.00 | 0.00 | 71 | 1007.2 |
| 20260906124404 | 57 | 0 | 0.0 | 0.0 | 0.00 | 0.00 | 0.00 | 71 | 1007.1 |
| 20260906123904 | 57 | 0 | 0.0 | 0.0 | 0.00 | 0.00 | 0.00 | 72 | 1007.0 |
| 20260906123404 | 58 | 0 | 0.0 | 0.0 | 0.00 | 0.00 | 0.00 | 72 | 1006.9 |
| 20260906120905 | 58 | 0 | 0.0 | 0.9 | 0.00 | 0.00 | 0.00 | 71 | 1006.6 |
| 20260906115904 | 58 | 0 | 0.0 | 0.0 | 0.00 | 0.00 | 0.00 | 68 | 1006.5 |
| 20260906114404 | 59 | 0 | 0.9 | 1.7 | 0.00 | 0.00 | 0.00 | 67 | 1006.3 |
| 20260906113404 | 60 | 0 | 0.0 | 0.0 | 0.00 | 0.00 | 0.00 | 67 | 1006.4 |
| 20260906112904 | 60 | 0 | 0.0 | 0.0 | 0.00 | 0.00 | 0.00 | 67 | 1006.5 |
| 20260906112404 | 60 | 0 | 0.0 | 0.0 | 0.00 | 0.00 | 0.00 | 66 | 1006.5 |
| 20260906111404 | 61 | 0 | 0.0 | 1.7 | 0.00 | 0.00 | 0.00 | 65 | 1006.4 |
| 20260906110905 | 61 | 0 | 0.0 | 1.7 | 0.00 | 0.00 | 0.00 | 65 | 1006.4 |
| 20260906110404 | 61 | 123 | 0.0 | 0.9 | 0.00 | 0.00 | 0.00 | 63 | 1006.4 |
| 20260906105904 | 62 | 123 | 0.0 | 0.9 | 0.00 | 0.00 | 0.00 | 62 | 1006.4 |
| 20260906105405 | 62 | 123 | 0.0 | 0.0 | 0.00 | 0.00 | 0.00 | 62 | 1006.4 |
| 20260906104904 | 62 | 123 | 0.0 | 1.7 | 0.00 | 0.00 | 0.00 | 61 | 1006.5 |
| 20260906104404 | 62 | 123 | 0.0 | 1.7 | 0.00 | 0.00 | 0.00 | 61 | 1006.4 |
| 20260906103905 | 62 | 123 | 0.9 | 1.7 | 0.00 | 0.00 | 0.00 | 60 | 1006.5 |
| 20260906103404 | 63 | 123 | 0.9 | 1.7 | 0.00 | 0.00 | 0.00 | 59 | 1006.5 |
| 20260906102904 | 63 | 123 | 0.0 | 0.9 | 0.00 | 0.00 | 0.00 | 59 | 1006.4 |
| 20260906101904 | 64 | 123 | 0.0 | 0.0 | 0.00 | 0.00 | 0.00 | 58 | 1006.4 |
| 20260906101404 | 64 | 123 | 0.0 | 2.6 | 0.00 | 0.00 | 0.00 | 57 | 1006.4 |
| 20260906092905 | 64 | 123 | 0.0 | 1.7 | 0.00 | 0.00 | 0.00 | 54 | 1006.1 |
| 20260906092404 | 64 | 136 | 0.0 | 1.7 | 0.00 | 0.00 | 0.00 | 56 | 1006.1 |
| 20260906091404 | 63 | 139 | 0.0 | 0.0 | 0.00 | 0.00 | 0.00 | 58 | 1006.0 |
| 20260906090904 | 63 | 139 | 0.0 | 0.0 | 0.00 | 0.00 | 0.00 | 57 | 1006.1 |
| 20260906085905 | 64 | 139 | 0.0 | 0.9 | 0.00 | 0.00 | 0.00 | 60 | 1006.0 |
| 20260906085404 | 64 | 139 | 0.0 | 0.0 | 0.00 | 0.00 | 0.00 | 59 | 1006.0 |
| 20260906084904 | 64 | 139 | 0.0 | 0.0 | 0.00 | 0.00 | 0.00 | 58 | 1006.0 |
| 20260906084404 | 64 | 139 | 0.0 | 0.0 | 0.00 | 0.00 | 0.00 | 58 | 1006.0 |
| 20260906082404 | 64 | 139 | 0.0 | 0.9 | 0.00 | 0.00 | 0.00 | 58 | 1006.2 |
| 20260906081904 | 64 | 139 | 0.9 | 2.6 | 0.00 | 0.00 | 0.00 | 57 | 1006.2 |
| 20260906081405 | 64 | 139 | 0.9 | 2.6 | 0.00 | 0.00 | 0.00 | 58 | 1006.2 |
| 20260906074404 | 64 | 155 | 0.0 | 0.9 | 0.00 | 0.00 | 0.00 | 58 | 1006.3 |
| 20260906070905 | 66 | 155 | 0.0 | 2.6 | 0.00 | 0.00 | 0.00 | 52 | 1006.5 |
| 20260906070404 | 66 | 155 | 0.0 | 2.6 | 0.00 | 0.00 | 0.00 | 52 | 1006.6 |
| 20260906065404 | 66 | 146 | 0.9 | 1.7 | 0.00 | 0.00 | 0.00 | 52 | 1006.6 |
| 20260906064904 | 66 | 146 | 0.0 | 2.6 | 0.00 | 0.00 | 0.00 | 52 | 1006.6 |
| 20260906064404 | 66 | 146 | 0.0 | 2.6 | 0.00 | 0.00 | 0.00 | 52 | 1006.7 |
| 20260906063905 | 66 | 146 | 0.9 | 2.6 | 0.00 | 0.00 | 0.00 | 53 | 1006.6 |
| 20260906063404 | 65 | 148 | 0.9 | 2.6 | 0.00 | 0.00 | 0.00 | 53 | 1006.7 |
| 20260906062904 | 65 | 141 | 0.9 | 2.6 | 0.00 | 0.00 | 0.00 | 54 | 1006.6 |
| 20260906061404 | 65 | 138 | 0.0 | 0.9 | 0.00 | 0.00 | 0.00 | 53 | 1006.4 |
| 20260906060404 | 66 | 138 | 0.0 | 0.0 | 0.00 | 0.00 | 0.00 | 55 | 1006.4 |
| 20260906055905 | 66 | 138 | 0.0 | 0.0 | 0.00 | 0.00 | 0.00 | 55 | 1006.4 |
| 20260906055404 | 66 | 138 | 0.0 | 0.0 | 0.00 | 0.00 | 0.00 | 54 | 1006.3 |
| 20260906054905 | 67 | 138 | 0.0 | 0.0 | 0.00 | 0.00 | 0.00 | 54 | 1006.3 |
| 20260906053904 | 68 | 138 | 0.0 | 1.7 | 0.00 | 0.00 | 0.00 | 52 | 1006.3 |
| 20260906052905 | 69 | 138 | 0.0 | 1.7 | 0.00 | 0.00 | 0.00 | 49 | 1006.2 |
| 20260906051904 | 69 | 138 | 0.0 | 1.7 | 0.00 | 0.00 | 0.00 | 47 | 1006.3 |
| 20260906051404 | 70 | 138 | 0.0 | 1.7 | 0.00 | 0.00 | 0.00 | 48 | 1006.3 |
| 20260906050904 | 70 | 138 | 0.9 | 2.6 | 0.00 | 0.00 | 0.00 | 47 | 1006.3 |
| 20260906045404 | 70 | 143 | 1.7 | 2.6 | 0.00 | 0.00 | 0.00 | 46 | 1006.3 |
| 20260906044904 | 70 | 145 | 0.9 | 2.6 | 0.00 | 0.00 | 0.00 | 47 | 1006.3 |
| 20260906043404 | 71 | 146 | 0.9 | 1.7 | 0.00 | 0.00 | 0.00 | 45 | 1006.4 |
| 20260906042904 | 72 | 146 | 0.0 | 0.9 | 0.00 | 0.00 | 0.00 | 44 | 1006.4 |
| 20260906042404 | 73 | 146 | 0.0 | 0.9 | 0.00 | 0.00 | 0.00 | 44 | 1006.4 |
| 20260906040904 | 74 | 146 | 0.0 | 1.7 | 0.00 | 0.00 | 0.00 | 40 | 1006.5 |
| 20260906040404 | 74 | 146 | 0.0 | 2.6 | 0.00 | 0.00 | 0.00 | 39 | 1006.5 |
| 20260906035904 | 75 | 145 | 0.9 | 2.6 | 0.00 | 0.00 | 0.00 | 38 | 1006.4 |
| 20260906035404 | 75 | 143 | 1.7 | 4.3 | 0.00 | 0.00 | 0.00 | 37 | 1006.3 |
| 20260906034404 | 75 | 149 | 1.7 | 4.3 | 0.00 | 0.00 | 0.00 | 36 | 1006.0 |
| 20260906032904 | 75 | 146 | 1.7 | 5.2 | 0.00 | 0.00 | 0.00 | 35 | 1005.8 |
| 20260906031405 | 75 | 50 | 1.7 | 4.3 | 0.00 | 0.00 | 0.00 | 35 | 1005.9 |
| 20260906030904 | 75 | 115 | 1.7 | 4.3 | 0.00 | 0.00 | 0.00 | 36 | 1005.8 |
| 20260906030405 | 74 | 154 | 1.7 | 4.3 | 0.00 | 0.00 | 0.00 | 37 | 1005.8 |
| 20260906025905 | 73 | 38 | 0.9 | 2.6 | 0.00 | 0.00 | 0.00 | 38 | 1005.7 |
| 20260906025404 | 73 | 80 | 0.0 | 2.6 | 0.00 | 0.00 | 0.00 | 39 | 1005.5 |
| 20260906024904 | 73 | 77 | 0.9 | 1.7 | 0.00 | 0.00 | 0.00 | 40 | 1005.3 |
| 20260906024404 | 73 | 121 | 0.9 | 1.7 | 0.00 | 0.00 | 0.00 | 42 | 1005.2 |
| 20260906023904 | 73 | 117 | 0.0 | 0.9 | 0.00 | 0.00 | 0.00 | 41 | 1005.1 |
| 20260906023404 | 74 | 101 | 0.0 | 1.7 | 0.00 | 0.00 | 0.00 | 42 | 1005.0 |
| 20260906021404 | 76 | 51 | 0.9 | 2.6 | 0.00 | 0.00 | 0.00 | 37 | 1004.9 |
| 20260906020903 | 76 | 49 | 0.0 | 2.6 | 0.00 | 0.00 | 0.00 | 37 | 1004.9 |
| 20260906020404 | 76 | 48 | 1.7 | 2.6 | 0.00 | 0.00 | 0.00 | 35 | 1004.8 |
| 20260906015904 | 77 | 219 | 0.0 | 1.7 | 0.00 | 0.00 | 0.00 | 37 | 1004.8 |
| 20260906014404 | 79 | 219 | 0.9 | 1.7 | 0.00 | 0.00 | 0.00 | 35 | 1004.5 |
| 20260906012904 | 80 | 212 | 0.9 | 2.6 | 0.00 | 0.00 | 0.00 | 36 | 1004.4 |
| 20260906011904 | 80 | 115 | 0.0 | 0.9 | 0.00 | 0.00 | 0.00 | 35 | 1004.4 |
| 20260906011404 | 81 | 115 | 0.0 | 2.6 | 0.00 | 0.00 | 0.00 | 36 | 1004.4 |
| 20260906010904 | 82 | 115 | 0.0 | 2.6 | 0.00 | 0.00 | 0.00 | 36 | 1004.4 |
| 20260906010404 | 82 | 102 | 0.0 | 2.6 | 0.00 | 0.00 | 0.00 | 35 | 1004.4 |
| 20260906005904 | 83 | 103 | 0.9 | 2.6 | 0.00 | 0.00 | 0.00 | 34 | 1004.4 |
| 20260906004904 | 84 | 81 | 0.0 | 1.7 | 0.00 | 0.00 | 0.00 | 32 | 1004.3 |
| 20260906003904 | 84 | 40 | 1.7 | 4.3 | 0.00 | 0.00 | 0.00 | 30 | 1004.2 |
| 20260906003404 | 85 | 312 | 0.0 | 1.7 | 0.00 | 0.00 | 0.00 | 32 | 1004.2 |
| 20260906002904 | 85 | 312 | 0.9 | 2.6 | 0.00 | 0.00 | 0.00 | 32 | 1004.2 |
| 20260906002404 | 85 | 55 | 0.9 | 2.6 | 0.00 | 0.00 | 0.00 | 29 | 1004.2 |
| 20260906001404 | 86 | 254 | 0.9 | 2.6 | 0.00 | 0.00 | 0.00 | 30 | 1004.4 |
| 20260906000404 | 86 | 38 | 0.9 | 2.6 | 0.00 | 0.00 | 0.00 | 30 | 1004.3 |
| 20260905235904 | 86 | 53 | 0.9 | 2.6 | 0.00 | 0.00 | 0.00 | 30 | 1004.3 |
| 20260905234904 | 86 | 81 | 0.0 | 2.6 | 0.00 | 0.00 | 0.00 | 30 | 1004.3 |
| 20260905234404 | 86 | 246 | 0.9 | 2.6 | 0.00 | 0.00 | 0.00 | 30 | 1004.2 |
| 20260905233904 | 86 | 245 | 1.7 | 2.6 | 0.00 | 0.00 | 0.00 | 31 | 1004.2 |
| 20260905233404 | 86 | 239 | 0.9 | 2.6 | 0.00 | 0.00 | 0.00 | 31 | 1004.3 |
| 20260905232904 | 86 | 248 | 0.9 | 2.6 | 0.00 | 0.00 | 0.00 | 31 | 1004.3 |
| 20260905232404 | 86 | 231 | 0.9 | 2.6 | 0.00 | 0.00 | 0.00 | 30 | 1004.2 |
| 20260905231404 | 87 | 213 | 0.0 | 4.3 | 0.00 | 0.00 | 0.00 | 31 | 1004.2 |
| 20260905225904 | 87 | 287 | 0.9 | 4.3 | 0.00 | 0.00 | 0.00 | 30 | 1004.2 |
| 20260905224904 | 89 | 244 | 2.6 | 6.1 | 0.00 | 0.00 | 0.00 | 28 | 1004.3 |
| 20260905224405 | 89 | 321 | 1.7 | 4.3 | 0.00 | 0.00 | 0.00 | 29 | 1004.1 |
| 20260905221904 | 88 | 262 | 0.9 | 2.6 | 0.00 | 0.00 | 0.00 | 31 | 1004.4 |
| 20260905221404 | 88 | 274 | 1.7 | 2.6 | 0.00 | 0.00 | 0.00 | 31 | 1004.4 |
| 20260905220904 | 88 | 205 | 0.9 | 4.3 | 0.00 | 0.00 | 0.00 | 32 | 1004.6 |
| 20260905220404 | 87 | 271 | 1.7 | 4.3 | 0.00 | 0.00 | 0.00 | 32 | 1004.5 |
| 20260905215904 | 87 | 23 | 1.7 | 5.2 | 0.00 | 0.00 | 0.00 | 32 | 1004.6 |
| 20260905214404 | 89 | 84 | 0.9 | 6.1 | 0.00 | 0.00 | 0.00 | 31 | 1004.6 |
| 20260905213905 | 89 | 28 | 1.7 | 6.1 | 0.00 | 0.00 | 0.00 | 31 | 1004.8 |
| 20260905213404 | 89 | 190 | 1.7 | 6.1 | 0.00 | 0.00 | 0.00 | 29 | 1004.8 |
| 20260905210404 | 86 | 304 | 1.7 | 4.3 | 0.00 | 0.00 | 0.00 | 30 | 1005.3 |